{"data":{"norad_id":59842,"epoch":"2026-05-24T14:11:57.886944Z","epoch_age_seconds":110263,"freshness":"FRESH","line1":"1 59842U 24097H   26144.59164221  .00003759  00000+0  14607-3 0  9991","line2":"2 59842  42.9985 205.8247 0001246 276.4469  83.6240 15.27579128113528","mean_motion":15.27579128,"eccentricity":0.0001246,"inclination_deg":42.9985,"raan_deg":205.8247,"arg_perigee_deg":276.4469,"mean_anomaly_deg":83.624,"bstar":0.00014607,"rev_number":11352,"period_min":94.266802524681,"perigee_km":482.19680300969,"apogee_km":483.9066112355,"semimajor_km":6861.1887071226,"source":"CELESTRAK","updated_at":"2026-05-25T13:38:19.086461Z"}}